{"data":{"norad_id":58079,"epoch":"2026-09-20T17:17:46.412448Z","epoch_age_seconds":121345,"freshness":"FRESH","line1":"1 58079U 23160E   26263.72067607 -.00002473  00000+0 -80306-4 0  9993","line2":"2 58079  43.0035  56.4284 0002496 279.5709  80.4861 15.27588575162778","mean_motion":15.27588575,"eccentricity":0.0002496,"inclination_deg":43.0035,"raan_deg":56.4284,"arg_perigee_deg":279.5709,"mean_anomaly_deg":80.4861,"bstar":-8.0306e-5,"rev_number":16277,"period_min":94.266219554568,"perigee_km":481.31087388421,"apogee_km":484.73596516564,"semimajor_km":6861.1604195249,"source":"CELESTRAK","updated_at":"2026-09-21T09:00:33.782094Z"}}